Location: Baia Mare
(47.6567°N, 23.5850°E)
Time: 14:32:49
(UTC+03:00)

ISS - Pass Details

Date: 12 July 2019
Orbit: 409 x 418 km, 51.6° (Epoch: 21 July)

Event Time Altitude Azimuth Distance (km) Brightness Sun altitude
Rises 04:12:30 0° 284° (WNW) 2,345 -0.2 -11.5°
Reaches altitude 10° 04:14:41 10° 292° (WNW) 1,481 -1.1 -11.2°
Maximum altitude 04:17:50 40° 4° (N) 622 -2.4 -10.9°
Drops below altitude 10° 04:20:59 10° 76° (ENE) 1,477 -0.1 -10.6°
Sets 04:23:09 0° 84° (E) 2,337 0.8 -10.3°
